Nome, AK

2:22 AM AKDT on May 23, 2018 (GMT -0800)
Nome

Weather History for PAOM - September, 2013

Change the Weather History Date:

Sunday, September 15, 2013

  Actual Average Record
Temperature  
Mean Temperature 45 °F 43 °F  
Max Temperature 47 °F 49 °F 62 °F (1949)
Min Temperature 42 °F 38 °F 24 °F (1992)
Degree Days  
Heating Degree Days 20 22  
Month to date heating degree days 294 287  
Since 1 July heating degree days 1068 1147  
Cooling Degree Days 0 0  
Month to date cooling degree days 0 0  
Year to date cooling degree days 7 3  
Moisture  
Dew Point 43 °F    
Average Humidity 0    
Maximum Humidity 0    
Minimum Humidity 0    
Precipitation  
Precipitation 0.14 in 0.08 in 0.76 in (2006)
Month to date precipitation 1.77 1.34  
Year to date precipitation 14.88 11.79  
Snow  
Snow 0.00 in 0.00 in 1.00 in (1972)
Month to date snowfall 0.0 0.1  
Since 1 July snowfall 0.0 0.1  
Since 1 September snowfall 0.0 0.1  
Snow Depth 0.00 in    
Sea Level Pressure  
Sea Level Pressure 30.11 in    
Wind  
Wind Speed 8 mph (East)    
Max Wind Speed 15 mph    
Max Gust Speed 17 mph    
Visibility 6 miles    
Events Rain    
T = Trace of Precipitation, MM = Missing Value Source: NWS Daily Summary

Daily Weather History Graph

Daily Weather History Graph

Search for Another Location

Airport or City:

Astronomy

Sep. 15, 2013 Rise Set
Actual Time 8:25 AM AKDT 9:26 PM AKDT
Civil Twilight 7:36 AM AKDT 10:15 PM AKDT
Nautical Twilight 6:33 AM AKDT 11:17 PM AKDT
Astronomical Twilight 5:15 AM AKDT 12:33 AM AKDT
Moon 7:59 PM AKDT (9/15) 3:03 AM AKDT (9/15)
Length of Visible Light 14h 39m
Length of Day
13h 00m
Waxing Gibbous, 83% of the Moon is Illuminated
Sep 15
Waxing Gibbous
Sep 19
Full
Sep 26
Last Quarter
Oct 4
New
Oct 11
First Quarter

Hourly Weather History & Observations

Time (AKDT) Temp. Windchill Dew Point Humidity Pressure Visibility Wind Dir Wind Speed Gust Speed Precip Events Conditions
12:53 AM 45.0 °F 40.1 °F 42.1 °F 90% 30.14 in 10.0 mi ENE 9.2 mph - N/A   Overcast
1:53 AM 44.1 °F 40.1 °F 42.1 °F 93% 30.15 in 4.0 mi East 6.9 mph - 0.01 in   Overcast
2:05 AM 44.6 °F 40.7 °F 42.8 °F 93% 30.15 in 2.5 mi East 6.9 mph - 0.00 in Rain Light Rain
2:53 AM 44.1 °F 40.8 °F 42.1 °F 93% 30.15 in 3.0 mi East 5.8 mph - 0.01 in   Overcast
2:56 AM 44.6 °F 41.4 °F 42.8 °F 93% 30.14 in 2.5 mi East 5.8 mph - 0.00 in Rain Light Rain
3:02 AM 44.6 °F 41.4 °F 42.8 °F 93% 30.14 in 1.8 mi East 5.8 mph - 0.00 in Rain Light Rain
3:09 AM 44.6 °F 41.4 °F 42.8 °F 93% 30.15 in 2.0 mi East 5.8 mph - 0.01 in Rain Light Rain
3:21 AM 44.6 °F 42.2 °F 42.8 °F 93% 30.14 in 3.0 mi East 4.6 mph - 0.02 in Rain Light Rain
3:53 AM 43.0 °F 38.2 °F 42.1 °F 97% 30.14 in 10.0 mi East 8.1 mph - 0.02 in   Overcast
4:53 AM 43.0 °F 38.8 °F 42.1 °F 97% 30.14 in 5.0 mi ENE 6.9 mph - 0.00 in Rain Light Rain
5:43 AM 44.6 °F 40.7 °F 42.8 °F 93% 30.13 in 10.0 mi East 6.9 mph - 0.00 in   Overcast
5:50 AM 44.6 °F 40.2 °F 42.8 °F 93% 30.13 in 8.0 mi East 8.1 mph - 0.00 in   Overcast
5:53 AM 44.1 °F 39.5 °F 42.1 °F 93% 30.14 in 5.0 mi East 8.1 mph - 0.00 in   Overcast
6:08 AM 42.8 °F 38.0 °F 42.8 °F 100% 30.13 in 5.0 mi East 8.1 mph - 0.01 in   Overcast
6:16 AM 42.8 °F 38.0 °F 42.8 °F 100% 30.13 in 2.5 mi East 8.1 mph - 0.01 in Rain Light Rain
6:25 AM 42.8 °F 38.6 °F 42.8 °F 100% 30.13 in 4.0 mi East 6.9 mph - 0.02 in Rain Light Rain
6:53 AM 43.0 °F 38.2 °F 42.1 °F 97% 30.13 in 4.0 mi East 8.1 mph - 0.02 in Rain Light Rain
7:09 AM 42.8 °F 38.0 °F 42.8 °F 100% 30.12 in 4.0 mi East 8.1 mph - 0.00 in Rain Light Rain
7:50 AM 42.8 °F 38.0 °F 42.8 °F 100% 30.13 in 3.0 mi East 8.1 mph - 0.00 in   Overcast
7:53 AM 43.0 °F 38.2 °F 42.1 °F 97% 30.13 in 4.0 mi East 8.1 mph - 0.00 in   Overcast
8:53 AM 43.0 °F 38.2 °F 42.1 °F 97% 30.12 in 2.5 mi ENE 8.1 mph - 0.01 in   Overcast
9:31 AM 42.8 °F 38.0 °F 42.8 °F 100% 30.12 in 1.8 mi East 8.1 mph - 0.01 in Rain Light Rain
9:53 AM 43.0 °F 38.2 °F 42.1 °F 97% 30.12 in 1.5 mi East 8.1 mph - 0.02 in Rain Light Rain
10:00 AM 42.8 °F 37.5 °F 42.8 °F 100% 30.12 in 1.8 mi ENE 9.2 mph - 0.00 in Rain Light Rain
10:08 AM 42.8 °F 38.6 °F 42.8 °F 100% 30.12 in 2.0 mi ENE 6.9 mph - 0.00 in   Overcast
10:36 AM 42.8 °F 37.5 °F 42.8 °F 100% 30.12 in 2.0 mi ENE 9.2 mph - 0.01 in Rain Light Rain
10:49 AM 42.8 °F 37.5 °F 42.8 °F 100% 30.12 in 2.0 mi ENE 9.2 mph - 0.01 in Rain Light Rain
10:53 AM 43.0 °F 38.2 °F 42.1 °F 97% 30.12 in 2.5 mi East 8.1 mph - 0.01 in   Overcast
11:34 AM 44.6 °F 39.7 °F 42.8 °F 93% 30.12 in 8.0 mi ENE 9.2 mph - 0.01 in Rain Light Rain
11:53 AM 45.0 °F 40.6 °F 43.0 °F 93% 30.13 in 7.0 mi East 8.1 mph - 0.02 in Rain Light Rain
12:49 PM 46.4 °F 41.1 °F 42.8 °F 87% 30.12 in 9.0 mi SE 11.5 mph - 0.00 in   Overcast
12:53 PM 46.9 °F - 43.0 °F 86% 30.12 in 10.0 mi SE 13.8 mph - 0.00 in   Overcast
1:00 PM 46.4 °F 41.1 °F 42.8 °F 87% 30.12 in 10.0 mi SE 11.5 mph - N/A   Overcast
1:35 PM 46.4 °F 41.1 °F 44.6 °F 93% 30.12 in 2.0 mi ESE 11.5 mph - 0.00 in Rain Light Rain
1:37 PM 46.4 °F 41.1 °F 44.6 °F 93% 30.12 in 4.0 mi SE 11.5 mph - 0.00 in Rain Light Rain
1:53 PM 46.0 °F 41.0 °F 44.1 °F 93% 30.12 in 9.0 mi ESE 10.4 mph - 0.00 in   Overcast
2:36 PM 46.4 °F 41.1 °F 44.6 °F 93% 30.11 in 10.0 mi ESE 11.5 mph - N/A   Overcast
2:51 PM 46.4 °F 40.7 °F 44.6 °F 93% 30.11 in 10.0 mi ESE 12.7 mph - N/A   Overcast
2:53 PM 46.9 °F - 44.1 °F 90% 30.12 in 10.0 mi ESE 11.5 mph - N/A   Overcast
3:53 PM 46.9 °F - 44.1 °F 90% 30.10 in 10.0 mi ESE 9.2 mph - N/A   Overcast
4:53 PM 46.9 °F - 44.1 °F 90% 30.09 in 10.0 mi East 11.5 mph - N/A   Overcast
5:51 PM 46.4 °F 41.9 °F 44.6 °F 93% 30.08 in 4.0 mi ESE 9.2 mph - N/A   Overcast
5:53 PM 46.0 °F 41.4 °F 44.1 °F 93% 30.08 in 5.0 mi ESE 9.2 mph - N/A   Overcast
6:13 PM 46.4 °F 42.4 °F 44.6 °F 93% 30.08 in 2.5 mi ESE 8.1 mph - N/A   Overcast
6:53 PM 45.0 °F 40.1 °F 44.1 °F 97% 30.08 in 10.0 mi ESE 9.2 mph - N/A   Overcast
7:53 PM 45.0 °F 41.2 °F 44.1 °F 97% 30.06 in 10.0 mi East 6.9 mph - N/A   Overcast
8:53 PM 45.0 °F 40.6 °F 43.0 °F 93% 30.06 in 10.0 mi ENE 8.1 mph - N/A   Overcast
9:53 PM 44.1 °F 40.1 °F 43.0 °F 96% 30.06 in 6.0 mi ENE 6.9 mph - 0.01 in Rain Light Rain
10:01 PM 44.6 °F 40.7 °F 42.8 °F 93% 30.05 in 8.0 mi ENE 6.9 mph - 0.01 in Rain Light Rain
10:10 PM 44.6 °F 42.2 °F 42.8 °F 93% 30.05 in 10.0 mi ENE 4.6 mph - 0.01 in Rain Light Rain
10:53 PM 44.1 °F 41.5 °F 42.1 °F 93% 30.04 in 10.0 mi ENE 4.6 mph - 0.01 in   Overcast
11:28 PM 44.6 °F 42.2 °F 42.8 °F 93% 30.03 in 10.0 mi ENE 4.6 mph - N/A   Overcast
11:53 PM 44.1 °F 42.5 °F 42.1 °F 93% 30.04 in 10.0 mi ENE 3.5 mph - N/A   Overcast